Location: White Rock
(35.8256°N, 106.1876°W)
Time: 20:12:29
(UTC-06:00)

X-37B - Visible Passes

Search period start: 20 October 2021 00:00
Search period end: 30 October 2021 00:00
Orbit: 385 x 389 km, 45.0° (Epoch: 17 October)

Date Brightness Start Highest point End Pass type
(mag) Time Alt. Az. Time Alt. Az. Time Alt. Az.
20 Oct 3.2 20:09:51 10° NW 20:10:57 15° NNW 20:10:57 15° NNW visible
21 Oct 2.8 19:11:26 10° NW 19:13:27 15° N 19:15:09 11° NE visible
22 Oct 2.4 19:49:37 10° NW 19:51:41 21° N 19:51:41 21° N visible
23 Oct 2.6 18:51:21 10° NW 18:53:36 18° N 18:55:51 10° NE visible
23 Oct 3.5 20:27:36 10° NW 20:28:17 15° NW 20:28:17 15° NW visible
24 Oct 1.5 19:29:21 10° NW 19:32:15 32° NNE 19:32:39 31° NE visible
25 Oct 2.2 20:07:27 10° WNW 20:09:26 35° WNW 20:09:26 35° WNW visible
26 Oct 0.7 19:09:07 10° NW 19:12:13 55° NNE 19:14:02 22° E visible
27 Oct 1.9 19:47:30 10° WNW 19:50:24 34° SW 19:51:08 30° S visible
28 Oct 0.8 18:48:58 10° WNW 18:52:07 74° SSW 18:55:16 10° SE visible
29 Oct 3.4 19:28:00 10° W 19:30:08 17° SW 19:32:16 10° S visible
